Regional Weather Roundup
Issued by NWS Green Bay, WI

Home | Current Version | Previous Version | Text Only | Print | Product List | Glossary On
Versions: 1 2 3 4 5 6 7 8 9 10 11 12 13 14 15 16 17 18 19 20 21 22 23 24 25 26 27 28 29 30 31 32 33 34 35 36 37 38 39 40 41 42 43 44 45 46 47 48 49 50
000
ASUS43 KGRB 210011
RWRGRB

NORTH-CENTRAL AND NORTHEAST WISCONSIN REGIONAL WEATHER ROUNDUP
NATIONAL WEATHER SERVICE GREEN BAY WI
700 PM CDT WED SEP 20 2017

WIZ005-009-010>012-018-019-210100-
NORTH CENTRAL WISCONSIN

CITY           SKY/WX    TMP DP  RH WIND       PRES   REMARKS
IRONWOOD       CLOUDY    69  61  75 W3        29.85R
MANITOWISH WTR CLOUDY    67  66  98 CALM      29.87R
ARBOR VITAE    PTCLDY    70  68  94 NW3       29.87S FOG
EAGLE RIVER    CLOUDY    66  66 100 CALM      29.87R FOG
LAND O LAKES   CLOUDY    68  67  97 CALM      29.89R FOG
RHINELANDER    CLOUDY    68  68 100 S3        29.86F FOG
PHILLIPS       PTCLDY    67  63  88 CALM      29.86S
ANTIGO         CLOUDY    69  69 100 SE5       29.88R FOG
TOMAHAWK         N/A     69  65  86 W6        29.85F
MERRILL          N/A     72  72 100 CALM      29.85S
$$

WIZ013-073-210100-
NORTHEAST WISCONSIN

CITY           SKY/WX    TMP DP  RH WIND       PRES   REMARKS
IRON MOUNTAIN  TSTM      69  66  90 CALM      29.85R FOG
MARINETTE      CLOUDY    72  66  81 S6        29.84S
OCONTO         CLOUDY    72  67  83 SE3       29.82R
$$

WIZ017-030-035>037-045-210100-
CENTRAL WISCONSIN

CITY           SKY/WX    TMP DP  RH WIND       PRES   REMARKS
MEDFORD        MOCLDY    66  62  87 NW6       29.85F
WAUSAU         CLOUDY    72  71  97 E5        29.83R FOG
MOSINEE        CLOUDY    72  72 100 CALM      29.86R
MARSHFIELD     CLOUDY    70  65  84 N8        29.83S
WISC RAPIDS    CLOUDY    71  70  96 CALM      29.81F THUNDER
STEVENS POINT  CLOUDY    67  67 100 CALM      29.83S
WAUPACA        CLOUDY    76  67  75 NW18G25   29.82R
SHAWANO        TSTM      74  71  89 S3        29.82S
CLINTONVILLE   NOT AVBL
WAUTOMA        CLOUDY    74  68  81 N9        29.82R THUNDER
$$

WIZ038-039-048-051-210100-
FOX VALLEY

CITY           SKY/WX    TMP DP  RH WIND       PRES   REMARKS
NWS GREEN BAY  LGT RAIN  73  71  93 W5        29.82R FOG
APPLETON       CLOUDY    75  66  73 S7        29.81R
OSHKOSH        TSTM      73  70  90 S8        29.81R
FOND DU LAC    TSTM      81  69  67 S3        29.81R
$$

WIZ022-050-052-210100-
EAST CENTRAL WISCONSIN

CITY           SKY/WX    TMP DP  RH WIND       PRES   REMARKS
EPHRAIM        FAIR      72  65  78 S8G20     29.84F
WASHINGTON ISL FAIR      69  63  82 S3        29.84F
STURGEON BAY   CLOUDY    72  67  84 S14       29.83F
MANITOWOC      NOT AVBL
SHEBOYGAN      CLOUDY    75  70  84 S9        29.83S
$$

LMZ563-521-522-541>543-210100-
LAKESHORE

STATION/POSITION TIME  TEMP    WIND        PRES    VSBY  WAVE
                       AIR SEA DIR/SP/G                  HT/PER
                 (UTC) (F)     (DEG/KT/KT) (MB)    (MI)  (FT/S)
SHEBOYGAN LKSHOR 0000   72     180/ 15/ 16 1009.7R
KEWAUNEE LKSHORE 2342   67     170/ 11/ 12 1009.7F
NORTHPORT PIER   2340   70     140/ 10/ 11 1010.2F
N MID LAKE BUOY  2350   66 65  320/  4/  4 1012.2          2/ 4
S GREEN BAY BUOY 0000   71 66  180/  8/ 10 1009.5
SISTER BAY LKSHO 0004   73     170/ 14/ 19   N/A
MENOMINEE LKSHOR 2342   71     150/ 11/ 12 1009.8F
$$



USA.gov is the U.S. government's official web portal to all federal, state and local government web resources and services.